Weather History for KORC - November, 2013

Change the Weather History Date:

Wednesday, November 20, 2013

  Actual Average Record
Temperature  
Mean Temperature 43 °F -  
Max Temperature 51 °F 40 °F 68 °F (2003)
Min Temperature 35 °F 24 °F 3 °F (2000)
Degree Days  
Heating Degree Days 22    
Moisture  
Dew Point 30 °F    
Average Humidity 57    
Maximum Humidity 81    
Minimum Humidity 46    
Precipitation  
Precipitation 0.00 in - - ()
Sea Level Pressure  
Sea Level Pressure 29.82 in    
Wind  
Wind Speed 10 mph (SSE)    
Max Wind Speed 16 mph    
Max Gust Speed 21 mph    
Visibility 10 miles    
Events      
Averages and records for this station are not official NWS values.
T = Trace of Precipitation, MM = Missing Value Source: NWS Daily Summary

Daily Weather History Graph

Daily Weather History Graph

Search for Another Location

Airport or City:

Trip Planner

Search our weather history database for the weather conditions in past years. The results will help you decide how hot, cold, wet, or windy it might be!

Date:

Astronomy

Nov. 20, 2013 Rise Set
Actual Time 7:23 AM CST 4:56 PM CST
Civil Twilight 6:52 AM CST 5:27 PM CST
Nautical Twilight 6:17 AM CST 6:01 PM CST
Astronomical Twilight 5:43 AM CST 6:35 PM CST
Moon 7:40 PM CST (11/20) 9:49 AM CST (11/20)
Length of Visible Light 10h 35m
Length of Day
9h 33m
Waning Gibbous, 91% of the Moon is Illuminated
Nov 20
Waning Gibbous
Nov 25
Last Quarter
Dec 2
New
Dec 9
First Quarter
Dec 17
Full

Hourly Weather History & Observations

Time (CST) Temp. Windchill Dew Point Humidity Pressure Visibility Wind Dir Wind Speed Gust Speed Precip Events Conditions
12:15 AM 46.4 °F 41.1 °F 26.6 °F 46% 29.80 in 10.0 mi South 11.5 mph - N/A   Clear
12:35 AM 46.4 °F 40.7 °F 26.6 °F 46% 29.80 in 10.0 mi South 12.7 mph 19.6 mph N/A   Clear
12:55 AM 46.4 °F 41.1 °F 26.6 °F 46% 29.80 in 10.0 mi SSE 11.5 mph - N/A   Clear
1:15 AM 46.4 °F 40.4 °F 26.6 °F 46% 29.80 in 10.0 mi South 13.8 mph 18.4 mph N/A   Clear
1:35 AM 46.4 °F 40.4 °F 26.6 °F 46% 29.79 in 10.0 mi South 13.8 mph 19.6 mph N/A   Clear
1:55 AM 46.4 °F 39.8 °F 26.6 °F 46% 29.79 in 10.0 mi South 16.1 mph - N/A   Clear
2:15 AM 46.4 °F 40.4 °F 26.6 °F 46% 29.79 in 10.0 mi South 13.8 mph 20.7 mph N/A   Clear
2:35 AM 46.4 °F 40.7 °F 26.6 °F 46% 29.79 in 10.0 mi South 12.7 mph - N/A   Clear
2:55 AM 46.4 °F 40.4 °F 26.6 °F 46% 29.79 in 10.0 mi South 13.8 mph - N/A   Clear
3:15 AM 44.6 °F 38.4 °F 26.6 °F 49% 29.79 in 10.0 mi South 12.7 mph 17.3 mph N/A   Clear
3:35 AM 44.6 °F 38.1 °F 26.6 °F 49% 29.79 in 10.0 mi South 13.8 mph - N/A   Clear
3:55 AM 44.6 °F 39.2 °F 28.4 °F 53% 29.79 in 10.0 mi South 10.4 mph - N/A   Clear
4:15 AM 44.6 °F 39.2 °F 26.6 °F 49% 29.78 in 10.0 mi South 10.4 mph - N/A   Clear
4:35 AM 42.8 °F 36.6 °F 26.6 °F 53% 29.78 in 10.0 mi South 11.5 mph - N/A   Clear
4:55 AM 42.8 °F 38.0 °F 26.6 °F 53% 29.78 in 10.0 mi South 8.1 mph - N/A   Clear
5:15 AM 42.8 °F 37.5 °F 26.6 °F 53% 29.77 in 10.0 mi South 9.2 mph - N/A   Clear
5:35 AM 42.8 °F 38.0 °F 26.6 °F 53% 29.77 in 10.0 mi South 8.1 mph - N/A   Clear
5:55 AM 42.8 °F 37.0 °F 26.6 °F 53% 29.76 in 10.0 mi South 10.4 mph - N/A   Clear
6:15 AM 42.8 °F 37.5 °F 26.6 °F 53% 29.77 in 10.0 mi SSE 9.2 mph - N/A   Clear
6:35 AM 42.8 °F 37.5 °F 26.6 °F 53% 29.77 in 10.0 mi SSE 9.2 mph - N/A   Clear
6:55 AM 42.8 °F 37.0 °F 26.6 °F 53% 29.77 in 10.0 mi South 10.4 mph - N/A   Clear
7:15 AM 42.8 °F 37.5 °F 28.4 °F 57% 29.78 in 10.0 mi SSE 9.2 mph - N/A   Clear
7:35 AM 42.8 °F 37.5 °F 28.4 °F 57% 29.78 in 10.0 mi SSE 9.2 mph - N/A   Clear
7:55 AM 42.8 °F 37.5 °F 28.4 °F 57% 29.79 in 10.0 mi South 9.2 mph - N/A   Clear
8:15 AM 42.8 °F 37.0 °F 30.2 °F 61% 29.79 in 10.0 mi South 10.4 mph - N/A   Clear
8:35 AM 42.8 °F 37.0 °F 30.2 °F 61% 29.79 in 10.0 mi SSE 10.4 mph - N/A   Clear
8:55 AM 42.8 °F 36.6 °F 30.2 °F 61% 29.79 in 10.0 mi South 11.5 mph - N/A   Clear
9:15 AM 42.8 °F 36.6 °F 30.2 °F 61% 29.80 in 10.0 mi South 11.5 mph 16.1 mph N/A   Clear
9:35 AM 42.8 °F 36.2 °F 30.2 °F 61% 29.79 in 10.0 mi South 12.7 mph 19.6 mph N/A   Clear
9:55 AM 44.6 °F 38.8 °F 30.2 °F 57% 29.80 in 10.0 mi South 11.5 mph - N/A   Clear
10:15 AM 44.6 °F 37.4 °F 30.2 °F 57% 29.80 in 10.0 mi South 16.1 mph - N/A   Clear
10:35 AM 46.4 °F 40.1 °F 30.2 °F 53% 29.80 in 10.0 mi South 15.0 mph - N/A   Clear
10:55 AM 46.4 °F 40.4 °F 30.2 °F 53% 29.80 in 10.0 mi South 13.8 mph - N/A   Clear
11:15 AM 46.4 °F 40.1 °F 30.2 °F 53% 29.80 in 10.0 mi South 15.0 mph 20.7 mph N/A   Clear
11:35 AM 48.2 °F - 30.2 °F 50% 29.79 in 10.0 mi South 10.4 mph - N/A   Scattered Clouds
11:55 AM 50.0 °F - 32.0 °F 50% 29.79 in 10.0 mi South 16.1 mph 19.6 mph N/A   Clear
12:15 PM 50.0 °F - 30.2 °F 47% 29.79 in 10.0 mi South 12.7 mph 18.4 mph N/A   Clear
12:35 PM 51.8 °F - 32.0 °F 47% 29.78 in 10.0 mi South 16.1 mph 19.6 mph N/A   Scattered Clouds
12:55 PM 50.0 °F - 30.2 °F 47% 29.78 in 10.0 mi South 13.8 mph - N/A   Clear
1:15 PM 50.0 °F - 30.2 °F 47% 29.78 in 10.0 mi South 10.4 mph - N/A   Clear
1:35 PM 50.0 °F - 30.2 °F 47% 29.78 in 10.0 mi South 11.5 mph 18.4 mph N/A   Scattered Clouds
1:55 PM 50.0 °F - 30.2 °F 47% 29.78 in 10.0 mi South 9.2 mph - N/A   Clear
2:15 PM 50.0 °F - 30.2 °F 47% 29.77 in 10.0 mi South 6.9 mph - N/A   Clear
2:35 PM 50.0 °F - 30.2 °F 47% 29.77 in 10.0 mi SSE 8.1 mph - N/A   Clear
2:55 PM 50.0 °F - 30.2 °F 47% 29.77 in 10.0 mi South 9.2 mph - N/A   Clear
3:15 PM 51.8 °F - 32.0 °F 47% 29.78 in 10.0 mi South 8.1 mph - N/A   Clear
3:35 PM 51.8 °F - 32.0 °F 47% 29.78 in 10.0 mi South 9.2 mph - N/A   Clear
3:55 PM 50.0 °F - 32.0 °F 50% 29.78 in 10.0 mi South 6.9 mph - N/A   Mostly Cloudy
4:15 PM 50.0 °F - 32.0 °F 50% 29.79 in 10.0 mi South 6.9 mph - N/A   Overcast
4:35 PM 50.0 °F - 32.0 °F 50% 29.80 in 10.0 mi SSE 5.8 mph - N/A   Overcast
4:55 PM 48.2 °F - 32.0 °F 54% 29.81 in 10.0 mi SSE 4.6 mph - N/A   Overcast
5:15 PM 48.2 °F - 32.0 °F 54% 29.82 in 10.0 mi SE 3.5 mph - N/A   Mostly Cloudy
5:35 PM 46.4 °F 45.2 °F 33.8 °F 62% 29.83 in 10.0 mi SE 3.5 mph - N/A   Mostly Cloudy
5:55 PM 46.4 °F 45.2 °F 33.8 °F 62% 29.84 in 10.0 mi ESE 3.5 mph - N/A   Mostly Cloudy
6:15 PM 44.6 °F 43.1 °F 32.0 °F 61% 29.85 in 10.0 mi ESE 3.5 mph - N/A   Clear
6:35 PM 42.8 °F 40.1 °F 32.0 °F 66% 29.84 in 10.0 mi ESE 4.6 mph - N/A   Clear
6:55 PM 42.8 °F 41.1 °F 32.0 °F 66% 29.85 in 10.0 mi ESE 3.5 mph - N/A   Clear
7:15 PM 42.8 °F 41.1 °F 32.0 °F 66% 29.86 in 10.0 mi ESE 3.5 mph - N/A   Clear
7:35 PM 41.0 °F 39.0 °F 33.8 °F 76% 29.87 in 10.0 mi SE 3.5 mph - N/A   Clear
7:55 PM 41.0 °F 39.0 °F 33.8 °F 76% 29.87 in 10.0 mi SE 3.5 mph - N/A   Clear
8:15 PM 41.0 °F 39.0 °F 33.8 °F 76% 29.88 in 10.0 mi SE 3.5 mph - N/A   Clear
8:35 PM 39.2 °F 35.9 °F 33.8 °F 81% 29.90 in 10.0 mi SSE 4.6 mph - N/A   Clear
8:55 PM 39.2 °F 35.9 °F 32.0 °F 75% 29.91 in 10.0 mi SSE 4.6 mph - N/A   Clear
9:15 PM 37.4 °F - 32.0 °F 81% 29.91 in 10.0 mi Calm Calm - N/A   Clear
9:35 PM 37.4 °F - 30.2 °F 75% 29.92 in 10.0 mi Calm Calm - N/A   Clear
9:55 PM 37.4 °F 34.9 °F 30.2 °F 75% 29.92 in 10.0 mi SE 3.5 mph - N/A   Clear
10:15 PM 37.4 °F 33.8 °F 30.2 °F 75% 29.94 in 10.0 mi SE 4.6 mph - N/A   Clear
10:35 PM 37.4 °F - 30.2 °F 75% 29.94 in 10.0 mi Calm Calm - N/A   Clear
10:55 PM 35.6 °F - 30.2 °F 81% 29.95 in 10.0 mi Calm Calm - N/A   Clear
11:15 PM 35.6 °F 32.8 °F 30.2 °F 81% 29.95 in 10.0 mi East 3.5 mph - N/A   Clear
11:35 PM 35.6 °F 32.8 °F 30.2 °F 81% 29.97 in 10.0 mi ENE 3.5 mph - N/A   Clear
11:55 PM 35.6 °F 31.7 °F 30.2 °F 81% 29.98 in 10.0 mi East 4.6 mph - N/A   Clear